Location: Charlottesville
(38.0290°N, 78.4770°W)
Time: 12:04:21
(UTC-05:00)

Vanguard 2 Rocket - Visible Passes

Search period start: 13 December 2017 00:00
Search period end: 23 December 2017 00:00
Orbit: 555 x 3326 km, 32.9° (Epoch: 13 December)

Date Brightness Start Highest point End Pass type
(mag) Time Alt. Az. Time Alt. Az. Time Alt. Az.
13 Dec 10.7 01:47:23 13° SE 01:47:23 13° SE 01:48:36 10° SE visible
13 Dec 10.3 03:53:12 17° SSW 03:53:12 17° SSW 03:57:38 10° S visible
13 Dec 9.5 17:31:31 10° SSW 17:40:13 31° SE 17:53:14 10° E visible
13 Dec 9.1 19:42:12 10° WSW 19:54:37 64° SSE 19:59:02 53° ESE visible
13 Dec 9.7 21:55:59 10° W 22:04:50 46° WSW 22:04:50 46° WSW visible
14 Dec11.000:51:18SE00:51:18SE00:10:38Wvisible
14 Dec 10.4 02:57:07 17° S 02:57:07 17° S 03:00:18 10° SSE visible
14 Dec 9.1 18:43:17 10° SW 18:53:55 54° SSE 19:02:49 30° E visible
14 Dec 9.2 20:56:02 10° WSW 21:08:37 71° SSW 21:08:37 71° SSW visible
14 Dec 10.5 23:10:58 10° W 23:14:25 21° W 23:14:25 21° W visible
15 Dec 10.7 02:00:58 12° SSE 02:00:58 12° SSE 02:01:43 10° SSE visible
15 Dec 9.2 17:44:53 10° SSW 17:53:49 41° SE 18:06:35 14° E visible
15 Dec 9.0 19:56:31 10° WSW 20:08:54 70° SSE 20:12:22 60° ESE visible
15 Dec 9.9 22:10:33 10° W 22:18:10 40° W 22:18:10 40° W visible
16 Dec11.101:04:48SE01:04:48SE00:23:59Wvisible
16 Dec 10.7 03:10:36 12° S 03:10:36 12° S 03:11:45 10° S visible
16 Dec 8.9 18:57:25 10° WSW 19:08:01 62° SSE 19:16:08 35° E visible
16 Dec 9.2 21:10:34 10° W 21:21:56 65° SW 21:21:56 65° SW visible
16 Dec 10.6 23:25:35 10° W 23:27:44 16° W 23:27:44 16° W visible
17 Dec 8.9 17:58:45 10° SW 18:07:43 51° SSE 18:19:54 17° E visible
17 Dec 9.0 20:11:00 10° WSW 20:23:18 73° S 20:25:43 66° SE visible
17 Dec 10.0 22:25:09 10° W 22:31:30 34° W 22:31:30 34° W visible
18 Dec11.101:18:05SSE01:18:05SSE00:37:18WNWvisible
18 Dec 8.8 19:11:48 10° WSW 19:22:19 69° S 19:29:28 40° E visible
18 Dec 9.3 21:25:09 10° W 21:35:17 58° WSW 21:35:17 58° WSW visible
18 Dec 10.8 23:40:21 10° W 23:41:05 12° W 23:41:05 12° W visible
19 Dec 8.7 18:12:56 10° WSW 18:21:52 61° SSE 18:33:16 20° E visible
19 Dec 9.0 20:25:33 10° W 20:37:46 72° S 20:39:04 70° SSE visible
19 Dec 10.2 22:39:48 10° W 22:44:53 28° W 22:44:53 28° W visible
20 Dec 8.7 17:14:27 10° SW 17:21:57 49° SSE 17:35:01 10° E visible
20 Dec 8.8 19:26:17 10° WSW 19:36:45 71° S 19:42:53 45° ESE visible
20 Dec 9.5 21:39:47 10° W 21:48:42 49° WSW 21:48:42 49° WSW visible
21 Dec 8.6 18:27:21 10° WSW 18:36:13 67° S 18:46:44 23° E visible
21 Dec 9.0 20:40:09 10° W 20:52:14 68° S 20:52:33 67° S visible
21 Dec 10.4 22:54:38 10° W 22:58:21 22° W 22:58:21 22° W visible
22 Dec 8.5 17:28:41 10° WSW 17:36:10 58° SSE 17:49:35 10° E visible
22 Dec 8.8 19:40:52 10° W 19:51:15 70° S 19:56:26 48° ESE visible
22 Dec 9.7 21:54:29 10° W 22:02:15 40° WSW 22:02:15 40° WSW visible
